Погода в Речном

Россия / Республика Татарстан     55°21′52″N   50°16′26″E
темп.,
°C
ветер,
м/с
пор.,
м/с
влажн.,
%
обл.,
%
осадки,
мм/ч
давл.,
гПа
погр.,
м
1 марта, пн
пн100:00−20ссз339884 0.0 101636
03:00−21ссз349882 0.0 101848
06:00−22сз349997 0.0 101951
09:00−20сз359793 0.1 1021156
12:00−17сз359425 0.0 1021250
15:00−16зсз249541 0.0 1021188
18:00−18юз349653 0.0 101934
21:00−17ююз479736 0.0 1018102
2 марта, вт
вт200:00−13ююз61095100 0.0 1015244
03:00−10юз71393100 0.1 1011370
06:00−8ююз81493100 0.5 1006498
09:00−4юз81495100 1.6 1003603
12:000юз81397100 1.6 1000645
15:000зюз61198100 2.6 999626
18:00−1з51292100 0.3 998460
21:00−3з51192100 0.4 999304
3 марта, ср
ср300:00−6з5109597 0.1 999210
03:00−8зюз5109653 0.1 1000169
06:00−8з489798 0.1 1000193
09:00−5зсз589499 0.1 1001515
12:00−4зсз5895100 0.3 1001498
15:00−4зсз6993100 0.8 1002627
18:00−5зсз5119699 0.4 1003453
21:00−9сз5119298 0.5 1006293
4 марта, чт
чт400:00−11з489684 0.0 1005144
03:00−11зюз489676 0.1 1006181
06:00−12зюз489799 0.1 1006135
09:00−8юз61095100 0.1 1005295
12:00−4юз71290100 0.1 1002693
15:00−2юз91595100 0.9 9991027
18:00−1юз101794100 1.6 996953
21:000зюз101796100 2.8 9941065
5 марта, пт
пт500:000зюз101696100 1.3 9931015
03:00−2зсз101495100 2.6 994757
06:00−6з8168791 0.1 998663
09:00−8з7139093 0.2 1002612
12:00−7з6988100 0.1 1006677
15:00−7з5889100 0.1 1009561
18:00−11з349569 0.0 101147
21:00−13з239444 0.0 101320